Regional Weather Roundup
Issued by NWS

Home | Current Version | Previous Version | Text Only | Print | Product List | Glossary Off
Versions: 1 2 3 4 5 6 7 8 9 10 11 12 13 14 15 16 17 18 19 20 21 22 23 24 25 26 27 28 29 30 31 32 33 34 35 36 37 38 39 40 41 42 43 44 45 46 47 48 49 50

000
ASUS45 KABQ 142101
RWRNM
NEW MEXICO REGIONAL WEATHER ROUNDUP
NATIONAL WEATHER SERVICE ALBUQUERQUE NM
200 PM MST THU DEC 14 2017

NOTE: "FAIR" MEANS FEW OR NO CLOUDS BELOW 12,000 FEET AGL WITH NO
       SIGNIFICANT WEATHER OR OBSTRUCTIONS TO VISION.

      THIS PRODUCT IS RELEASED AS TWO VERSIONS.  ONE VERSION NEAR
      THE TOP OF THE HOUR CONTAINING PRELIMINARY DATA FROM ALBUQUERQUE
      AND OTHER STATIONS.  A FINAL VERSION WITH ADDITIONAL DATA IS
      ISSUED ABOUT 10 MINUTES AFTER THE HOUR.

NMZ501-503-504-510>518-142200-
NORTHWEST PLATEAU/NORTHCENTRAL MOUNTAINS

CITY           SKY/WX    TMP DP  RH WIND       PRES   REMARKS
FARMINGTON     FAIR      46  23  40 VRB7      30.13S
LOS ALAMOS     PTSUNNY   39  11  32 S12G18    30.15S WCI  32
SANTA FE       FAIR      43  14  31 S12       30.14R
TAOS           FAIR      40  16  37 NW5       30.15F
ANGEL FIRE     CLOUDY    32  14  46 W13G20    30.12F WCI  23

$$
NMZ402-403-502-505>509-142200-
WESTCENTRAL MOUNTAINS/SOUTHWEST MOUNTAINS

CITY           SKY/WX    TMP DP  RH WIND       PRES   REMARKS
GALLUP         PTSUNNY   45  20  36 NE10G20   30.14R
GRANTS         CLOUDY    40  26  55 NW13G20   30.16R WCI  33
SILVER CITY    FAIR      58  20  23 NW14      30.01S

$$
NMZ407-409-411-412-142200-
SOUTHERN DESERTS

CITY           SKY/WX    TMP DP  RH WIND       PRES   REMARKS
DEMING         PTSUNNY   64  29  26 SW6       29.97F
LAS CRUCES     FAIR      61  22  22 E3        30.01S
ALAMOGORDO     FAIR      55  18  22 CALM      30.04S
T OR C         FAIR      55  12  18 NE20G28   30.04S

$$
NMZ519>523-142200-
CENTRAL VALLEYS/CENTRAL HIGHLANDS

CITY           SKY/WX    TMP DP  RH WIND       PRES   REMARKS
ALBUQUERQUE    FAIR      46  14  27 E17       30.12F
DOUBLE EAGLE   MOSUNNY   46  14  27 E12       30.13S
MORIARTY ARPT  FAIR      42  16  36 SE9       30.16F
CLINES CORNERS FAIR      35  15  44 E15G24    30.14F WCI  25
BELEN          FAIR      50  10  20 W3        30.11F
SOCORRO        FAIR      52  12  19 N5        30.10S

$$
NMZ524>526-539-540-142200-
SOUTHCENTRAL MOUNTAINS

CITY           SKY/WX    TMP DP  RH WIND       PRES   REMARKS
RUIDOSO        FAIR      37  14  38 SE10      30.15S WCI  30

$$
NMZ527>531-142200-
NORTHEAST HIGHLANDS/NORTHEAST PLAINS

CITY           SKY/WX    TMP DP  RH WIND       PRES   REMARKS
LAS VEGAS      FAIR      36  14  40 S7        30.15F WCI  30
RATON          CLOUDY    35  20  54 NE12      30.15S WCI  27
CLAYTON        CLOUDY    40  24  53 N16       30.17S WCI  31

$$
NMZ532>537-142200-
EASTCENTRAL PLAINS

CITY           SKY/WX    TMP DP  RH WIND       PRES   REMARKS
SANTA ROSA     FAIR      44  16  32 NE5       30.16F
TUCUMCARI      FAIR      49  23  36 NE9       30.15F
CANNON AFB     NOT AVBL
CLOVIS AIRPORT FAIR      46  19  34 NE15      30.17F

$$
NMZ028-029-538-142200-
SOUTHEAST PLAINS

CITY           SKY/WX    TMP DP  RH WIND       PRES   REMARKS
ROSWELL        FAIR      54  18  24 NE9       30.13F
ARTESIA        FAIR      54  19  26 E6        30.13S
CARLSBAD       FAIR      56  22  26 NE13      30.10F
HOBBS          SUNNY     54  19  26 NE14G21   30.11S


$$




USA.gov is the U.S. government's official web portal to all federal, state and local government web resources and services.